De Queen, AR

9:18 PM CDT on August 23, 2017 (GMT -0500)
Helms Sevier County

Weather History for KDEQ - October, 2014

Change the Weather History Date:

Friday, October 17, 2014

  Actual Average Record
Temperature  
Mean Temperature 66 °F 63 °F  
Max Temperature 81 °F 76 °F 92 °F (1953)
Min Temperature 50 °F 50 °F 28 °F (1952)
Degree Days  
Heating Degree Days 0 4  
Month to date heating degree days 33 45  
Since 1 July heating degree days 34 54  
Cooling Degree Days 1 2  
Month to date cooling degree days 67 48  
Year to date cooling degree days 1699 1913  
Growing Degree Days 16 (Base 50)    
Moisture  
Dew Point 56 °F    
Average Humidity 75    
Maximum Humidity 100    
Minimum Humidity 49    
Precipitation  
Precipitation 0.00 in 0.16 in 3.92 in (1983)
Month to date precipitation 2.62 2.50  
Year to date precipitation 36.06 37.70  
Snow  
Snow 0.00 in - - ()
Month to date snowfall 0.0  
Since 1 July snowfall 0.0  
Since 1 September snowfall 0.0  
Snow Depth 0.00 in    
Sea Level Pressure  
Sea Level Pressure 29.90 in    
Wind  
Wind Speed 1 mph (East)    
Max Wind Speed 7 mph    
Max Gust Speed 9 mph    
Visibility 4 miles    
Events Fog    
T = Trace of Precipitation, MM = Missing Value Source: NWS Daily Summary

Daily Weather History Graph

Daily Weather History Graph

Search for Another Location

Airport or City:

Trip Planner

Search our weather history database for the weather conditions in past years. The results will help you decide how hot, cold, wet, or windy it might be!

Date:

Astronomy

Oct. 17, 2014 Rise Set
Actual Time 7:24 AM CDT 6:40 PM CDT
Civil Twilight 6:59 AM CDT 7:06 PM CDT
Nautical Twilight 6:29 AM CDT 7:35 PM CDT
Astronomical Twilight 6:00 AM CDT 8:04 PM CDT
Moon 1:44 AM CDT (10/17) 3:14 PM CDT (10/17)
Length of Visible Light 12h 07m
Length of Day
11h 16m
Waning Crescent, 32% of the Moon is Illuminated
Oct 17
Waning Crescent
Oct 23
New
Oct 30
First Quarter
Nov 6
Full
Nov 14
Last Quarter

Hourly Weather History & Observations

Time (CDT) Temp. Heat Index Dew Point Humidity Pressure Visibility Wind Dir Wind Speed Gust Speed Precip Events Conditions
12:31 AM 53.1 °F - 53.1 °F 100% 29.85 in 1.8 mi East 3.5 mph - N/A   Clear
12:44 AM 53.1 °F - 52.0 °F 96% 29.84 in 3.0 mi East 3.5 mph - N/A   Clear
12:53 AM 53.1 °F - 53.1 °F 100% 29.83 in 4.0 mi Calm Calm - N/A   Clear
1:11 AM 53.1 °F - 53.1 °F 100% 29.85 in 2.5 mi East 3.5 mph - N/A   Clear
1:21 AM 53.1 °F - 53.1 °F 100% 29.85 in 8.0 mi East 3.5 mph - N/A   Clear
1:53 AM 53.1 °F - 53.1 °F 100% 29.84 in 9.0 mi Calm Calm - N/A   Clear
2:53 AM 53.1 °F - 53.1 °F 100% 29.84 in 9.0 mi East 3.5 mph - N/A   Clear
3:53 AM 53.1 °F - 52.0 °F 96% 29.84 in 6.0 mi Calm Calm - N/A   Clear
4:11 AM 53.1 °F - 52.0 °F 96% 29.85 in 2.0 mi Calm Calm - N/A   Clear
4:21 AM 51.1 °F - 51.1 °F 100% 29.85 in 5.0 mi Calm Calm - N/A   Partly Cloudy
4:53 AM 51.1 °F - 51.1 °F 100% 29.85 in 4.0 mi Calm Calm - N/A   Clear
5:34 AM 51.1 °F - 51.1 °F 100% 29.86 in 2.0 mi Calm Calm - N/A   Partly Cloudy
5:37 AM 51.1 °F - 51.1 °F 100% 29.86 in 1.0 mi Calm Calm - N/A   Mist
5:49 AM 51.8 °F - 51.8 °F 100% 29.86 in 0.5 mi Calm Calm - N/A Fog Fog
5:53 AM 51.1 °F - 51.1 °F 100% 29.85 in 0.8 mi Calm Calm - N/A   Mist
5:57 AM 51.1 °F - 51.1 °F 100% 29.86 in 3.0 mi Calm Calm - N/A   Scattered Clouds
6:24 AM 51.1 °F - 50.0 °F 96% 29.86 in 1.8 mi Calm Calm - N/A   Clear
6:27 AM 51.1 °F - 50.0 °F 96% 29.86 in 1.0 mi Calm Calm - N/A   Mist
6:34 AM 50.0 °F - 50.0 °F 100% 29.87 in 0.2 mi Calm Calm - N/A Fog Fog
6:50 AM 50.0 °F - 50.0 °F 100% 29.87 in 1.0 mi Calm Calm - N/A   Mist
6:53 AM 50.0 °F - 50.0 °F 100% 29.86 in 3.0 mi Calm Calm - N/A   Mostly Cloudy
7:07 AM 50.0 °F - 50.0 °F 100% 29.87 in 1.5 mi Calm Calm - N/A   Mostly Cloudy
7:14 AM 50.0 °F - 50.0 °F 100% 29.88 in 0.2 mi Calm Calm - N/A Fog Fog
7:41 AM 51.1 °F - 51.1 °F 100% 29.89 in 1.0 mi Calm Calm - N/A   Mist
7:43 AM 51.1 °F - 51.1 °F 100% 29.89 in 2.5 mi Calm Calm - N/A   Scattered Clouds
7:50 AM 51.8 °F - 51.8 °F 100% 29.89 in 3.0 mi Calm Calm - N/A   Partly Cloudy
7:53 AM 51.1 °F - 51.1 °F 100% 29.88 in 3.0 mi Calm Calm - N/A   Clear
7:55 AM 51.1 °F - 51.1 °F 100% 29.89 in 1.8 mi Calm Calm - N/A   Partly Cloudy
7:59 AM 51.1 °F - 51.1 °F 100% 29.89 in 0.8 mi Calm Calm - N/A   Mist
8:07 AM 52.0 °F - 52.0 °F 100% 29.90 in 0.8 mi Calm Calm - N/A   Clear
8:13 AM 53.1 °F - 53.1 °F 100% 29.90 in 2.0 mi Calm Calm - N/A   Clear
8:24 AM 54.0 °F - 54.0 °F 100% 29.90 in 5.0 mi Calm Calm - N/A   Clear
8:53 AM 59.0 °F - 55.9 °F 90% 29.91 in 9.0 mi Calm Calm - N/A   Clear
9:53 AM 64.9 °F - 59.0 °F 81% 29.91 in 10.0 mi Calm Calm - N/A   Clear
10:53 AM 69.1 °F - 60.1 °F 73% 29.91 in 10.0 mi Calm Calm - N/A   Clear
11:53 AM 72.0 °F - 57.9 °F 61% 29.91 in 10.0 mi Calm Calm - N/A   Clear
12:53 PM 75.9 °F - 59.0 °F 56% 29.91 in 10.0 mi NNW 3.5 mph - N/A   Clear
1:53 PM 77.0 °F - 59.0 °F 54% 29.89 in 10.0 mi Calm Calm - N/A   Clear
2:53 PM 80.1 °F 80.7 °F 59.0 °F 48% 29.88 in 10.0 mi Variable 3.5 mph - N/A   Clear
3:53 PM 81.0 °F 81.6 °F 60.1 °F 49% 29.89 in 10.0 mi Calm Calm - N/A   Clear
4:53 PM 80.1 °F 80.9 °F 60.1 °F 50% 29.89 in 10.0 mi ESE 5.8 mph - N/A   Clear
5:53 PM 77.0 °F - 62.1 °F 60% 29.89 in 10.0 mi SSW 4.6 mph - N/A   Clear
6:53 PM 69.1 °F - 64.0 °F 84% 29.90 in 10.0 mi Calm Calm - N/A   Clear
7:53 PM 64.0 °F - 63.0 °F 96% 29.92 in 10.0 mi Calm Calm - N/A   Clear
8:04 PM 64.0 °F - 63.0 °F 96% 29.93 in 1.8 mi Calm Calm - N/A   Clear
8:12 PM 64.0 °F - 63.0 °F 96% 29.93 in 3.0 mi Calm Calm - N/A   Clear
8:45 PM 63.0 °F - 62.1 °F 97% 29.94 in 1.0 mi Calm Calm - N/A   Mist
8:53 PM 62.1 °F - 61.0 °F 96% 29.94 in 0.5 mi Calm Calm - N/A Fog Fog
9:00 PM 63.0 °F - 62.1 °F 97% 29.95 in 0.8 mi Calm Calm - N/A   Clear
9:15 PM 62.1 °F - 62.1 °F 100% 29.95 in 1.0 mi Calm Calm - N/A   Clear
9:22 PM 63.0 °F - 62.1 °F 97% 29.96 in 0.8 mi Calm Calm - N/A   Clear
9:34 PM 62.1 °F - 62.1 °F 100% 29.96 in 2.0 mi Calm Calm - N/A   Clear
9:41 PM 62.1 °F - 62.1 °F 100% 29.96 in 3.0 mi Calm Calm - N/A   Clear
9:53 PM 62.1 °F - 61.0 °F 96% 29.95 in 8.0 mi Calm Calm - N/A   Clear
10:02 PM 61.0 °F - 61.0 °F 100% 29.96 in 1.8 mi Calm Calm - N/A   Clear
10:12 PM 61.0 °F - 61.0 °F 100% 29.96 in 0.5 mi Calm Calm - N/A Fog Fog
10:22 PM 62.1 °F - 61.0 °F 96% 29.96 in 0.2 mi Calm Calm - N/A Fog Fog
10:53 PM 62.1 °F - 61.0 °F 96% 29.95 in 0.8 mi Calm Calm - N/A   Clear
10:58 PM 62.1 °F - 62.1 °F 100% 29.96 in 2.5 mi Calm Calm - N/A   Clear
11:05 PM 62.1 °F - 62.1 °F 100% 29.96 in 5.0 mi Calm Calm - N/A   Clear
11:53 PM 61.0 °F - 61.0 °F 100% 29.96 in 10.0 mi Calm Calm - N/A   Clear